Location: Vancouver
(49.2500°N, 123.1330°W)
Time: 17:40:25
(UTC-07:00)

BREEZE-M DEB (TANK) - Visible Passes

Search period start: 19 April 2014 00:00
Search period end: 29 April 2014 00:00
Orbit: 262 x 13738 km, 49.6° (Epoch: 19 April)

Date Brightness Start Highest point End Pass type
(mag) Time Alt. Az. Time Alt. Az. Time Alt. Az.
19 Apr 8.4 00:07:17 16° SE 01:06:36 37° E 02:24:58 10° NE visible
19 Apr 8.3 04:23:59 17° SW 06:00:49 86° SSE 07:13:23 10° E visible
20 Apr 8.2 01:47:24 27° S 02:49:08 59° ESE 04:20:18 10° ENE visible
20 Apr 8.5 23:10:41 11° ESE 00:09:19 28° E 01:17:51 10° NE visible
21 Apr 8.2 03:27:20 24° SSW 04:47:18 80° SE 06:11:52 10° ENE visible
22 Apr 8.2 00:50:28 25° SSE 01:46:41 50° E 03:16:10 10° NE visible
22 Apr 8.4 05:07:08 10° WSW 07:02:28 90° N 08:00:38 10° E visible
22 Apr 8.6 22:24:02 10° E 23:13:23 20° ENE 00:06:50 10° NE visible
23 Apr 8.1 02:30:04 28° SSW 03:36:55 72° SE 05:09:16 10° ENE visible
23 Apr 8.3 23:52:56 21° SE 00:46:27 40° E 02:10:25 10° NE visible
24 Apr 8.2 04:09:30 18° SW 05:45:55 88° SSE 06:59:15 10° E visible
24 Apr 8.8 21:52:33 10° ENE 22:18:37 12° ENE 22:45:10 10° NE visible
25 Apr 8.1 01:32:13 30° S 02:29:55 63° ESE 04:05:27 10° ENE visible
25 Apr 8.4 22:54:48 14° SE 23:48:02 31° E 01:02:28 10° NE visible
26 Apr 8.1 03:11:18 24° SW 04:30:03 82° SE 05:56:49 10° E visible
27 Apr 8.1 00:33:44 28° SSE 01:25:54 53° ESE 03:00:15 10° ENE visible
27 Apr 8.4 04:51:23 10° WSW 06:46:48 89° N 07:45:10 10° ESE visible
27 Apr 8.5 22:00:28 10° ESE 22:51:07 22° ENE 23:51:06 10° NE visible
28 Apr 8.0 02:12:28 28° SSW 03:17:30 75° SE 04:53:13 10° ENE visible
28 Apr 8.1 23:34:37 23° SE 00:00:00 39° ESE 00:00:00 39° ESE visible
